Year,Month,Day,Hour,Minute,Value (Times are PST for temperature in C)
2010,08,18,16,54,23.20
2010,08,18,16,55,23.20
2010,08,18,16,56,23.30
2010,08,18,16,57,23.40
2010,08,18,16,58,23.40
2010,08,18,16,59,23.30
2010,08,18,17,00,23.30
2010,08,18,17,01,23.30
2010,08,18,17,02,23.30
2010,08,18,17,03,23.20
2010,08,18,17,04,23.10
2010,08,18,17,05,23.00
2010,08,18,17,06,23.00
2010,08,18,17,07,23.10
2010,08,18,17,08,23.10
2010,08,18,17,09,23.10
2010,08,18,17,10,23.10
2010,08,18,17,11,23.00
2010,08,18,17,12,23.00
2010,08,18,17,13,22.90
2010,08,18,17,14,22.80
2010,08,18,17,15,22.70
2010,08,18,17,16,22.80
2010,08,18,17,17,22.90
2010,08,18,17,18,22.90
2010,08,18,17,19,23.00
2010,08,18,17,20,23.10
2010,08,18,17,21,23.10
2010,08,18,17,22,23.20
2010,08,18,17,23,23.30
2010,08,18,17,24,23.30
2010,08,18,17,25,23.30
2010,08,18,17,26,23.40
2010,08,18,17,27,23.40
2010,08,18,17,28,23.40
2010,08,18,17,29,23.30
2010,08,18,17,30,23.30
2010,08,18,17,31,23.30
2010,08,18,17,32,23.30
2010,08,18,17,33,23.40
2010,08,18,17,34,23.40
2010,08,18,17,35,23.30
2010,08,18,17,36,23.30
2010,08,18,17,37,23.30
2010,08,18,17,38,23.30
2010,08,18,17,39,23.20
2010,08,18,17,40,23.10
2010,08,18,17,41,22.90
2010,08,18,17,42,22.80
2010,08,18,17,43,22.70
2010,08,18,17,44,22.70
2010,08,18,17,45,22.70
2010,08,18,17,46,22.80
2010,08,18,17,47,22.80
2010,08,18,17,48,22.80
2010,08,18,17,49,22.90
2010,08,18,17,50,22.90
2010,08,18,17,51,23.00
2010,08,18,17,52,23.00
2010,08,18,17,53,23.10
2010,08,18,17,54,23.10
2010,08,18,17,55,23.20
2010,08,18,17,56,23.20
2010,08,18,17,57,23.20
2010,08,18,17,58,23.30
2010,08,18,17,59,23.30
2010,08,18,18,00,23.40
2010,08,18,18,01,23.40
2010,08,18,18,02,23.50
2010,08,18,18,03,23.50
2010,08,18,18,04,23.60
2010,08,18,18,05,23.70
2010,08,18,18,06,23.70
2010,08,18,18,07,23.70
2010,08,18,18,08,23.70
2010,08,18,18,09,23.70
2010,08,18,18,10,23.70
2010,08,18,18,11,23.70
2010,08,18,18,12,23.70
2010,08,18,18,13,23.70
2010,08,18,18,14,23.70
2010,08,18,18,15,23.60
2010,08,18,18,16,23.60
2010,08,18,18,17,23.60
2010,08,18,18,18,23.50
2010,08,18,18,19,23.50
2010,08,18,18,20,23.50
2010,08,18,18,21,23.40
2010,08,18,18,22,23.30
2010,08,18,18,23,23.30
2010,08,18,18,24,23.20
2010,08,18,18,25,23.10
2010,08,18,18,26,23.00
2010,08,18,18,27,22.80
2010,08,18,18,28,22.70
2010,08,18,18,29,22.50
2010,08,18,18,30,22.30
2010,08,18,18,31,22.10
2010,08,18,18,32,22.00
2010,08,18,18,33,21.80
2010,08,18,18,34,21.80
2010,08,18,18,35,21.70
2010,08,18,18,36,21.60
2010,08,18,18,37,21.50
2010,08,18,18,38,21.40
2010,08,18,18,39,21.40
2010,08,18,18,40,21.40
2010,08,18,18,41,21.30
2010,08,18,18,42,21.30
2010,08,18,18,43,21.20
2010,08,18,18,44,21.20
2010,08,18,18,45,21.10
2010,08,18,18,46,21.00
2010,08,18,18,47,20.90
2010,08,18,18,48,20.80
2010,08,18,18,49,20.80
2010,08,18,18,50,20.70
2010,08,18,18,51,20.70
2010,08,18,18,52,20.70
2010,08,18,18,53,20.60
2010,08,18,18,54,20.60
2010,08,18,18,55,20.60
2010,08,18,18,56,20.50
2010,08,18,18,57,20.50
2010,08,18,18,58,20.40
2010,08,18,18,59,20.40
2010,08,18,19,00,20.40
2010,08,18,19,01,20.40
2010,08,18,19,02,20.40
2010,08,18,19,03,20.30
2010,08,18,19,04,20.30
2010,08,18,19,05,20.30
2010,08,18,19,06,20.20
2010,08,18,19,07,20.20
2010,08,18,19,08,20.10
2010,08,18,19,09,20.00
2010,08,18,19,10,20.00
2010,08,18,19,11,19.90
2010,08,18,19,12,19.90
2010,08,18,19,13,19.80
2010,08,18,19,14,19.80
2010,08,18,19,15,19.80
2010,08,18,19,16,19.80
2010,08,18,19,17,19.80
2010,08,18,19,18,19.80
2010,08,18,19,19,19.80
2010,08,18,19,20,19.70
2010,08,18,19,21,19.70
2010,08,18,19,22,19.70
2010,08,18,19,23,19.70
2010,08,18,19,24,19.70
2010,08,18,19,25,19.70
2010,08,18,19,26,19.70
2010,08,18,19,27,19.70
2010,08,18,19,28,19.70
2010,08,18,19,29,19.60
2010,08,18,19,30,19.60
2010,08,18,19,31,19.60
2010,08,18,19,32,19.60
2010,08,18,19,33,19.60
2010,08,18,19,34,19.50
2010,08,18,19,35,19.50
2010,08,18,19,36,19.40
2010,08,18,19,37,19.40
2010,08,18,19,38,19.40
2010,08,18,19,39,19.30
2010,08,18,19,40,19.30
2010,08,18,19,41,19.30
2010,08,18,19,42,19.30
2010,08,18,19,43,19.20
2010,08,18,19,44,19.20
2010,08,18,19,45,19.20
2010,08,18,19,46,19.10
2010,08,18,19,47,19.10
2010,08,18,19,48,19.00
2010,08,18,19,49,19.00
2010,08,18,19,50,18.90
2010,08,18,19,51,18.90
2010,08,18,19,52,18.90
2010,08,18,19,53,18.90
2010,08,18,19,54,18.90
2010,08,18,19,55,18.80
2010,08,18,19,56,18.80
2010,08,18,19,57,18.80
2010,08,18,19,58,18.80
2010,08,18,19,59,18.70
2010,08,18,20,00,18.70
2010,08,18,20,01,18.70
2010,08,18,20,02,18.60
2010,08,18,20,03,18.60
2010,08,18,20,04,18.50
2010,08,18,20,05,18.50
2010,08,18,20,06,18.40
2010,08,18,20,07,18.40
2010,08,18,20,08,18.40
2010,08,18,20,09,18.30
2010,08,18,20,10,18.30
2010,08,18,20,11,18.30
2010,08,18,20,12,18.20
2010,08,18,20,13,18.20
2010,08,18,20,14,18.20
2010,08,18,20,15,18.20
2010,08,18,20,16,18.10
2010,08,18,20,17,18.10
2010,08,18,20,18,18.10
2010,08,18,20,19,18.10
2010,08,18,20,20,18.10
2010,08,18,20,21,18.00
2010,08,18,20,22,18.00
2010,08,18,20,23,18.00
2010,08,18,20,24,17.90
2010,08,18,20,25,17.90
2010,08,18,20,26,17.90
2010,08,18,20,27,17.90
2010,08,18,20,28,17.80
2010,08,18,20,29,17.80
2010,08,18,20,30,17.80
2010,08,18,20,31,17.80
2010,08,18,20,32,17.70
2010,08,18,20,33,17.70
2010,08,18,20,34,17.70
2010,08,18,20,35,17.70
2010,08,18,20,36,17.60
2010,08,18,20,37,17.60
2010,08,18,20,38,17.60
2010,08,18,20,39,17.60
2010,08,18,20,40,17.50
2010,08,18,20,41,17.50
2010,08,18,20,42,17.50
2010,08,18,20,43,17.40
2010,08,18,20,44,17.40
2010,08,18,20,45,17.40
2010,08,18,20,46,17.40
2010,08,18,20,47,17.30
2010,08,18,20,48,17.30
2010,08,18,20,49,17.30
2010,08,18,20,50,17.20
2010,08,18,20,51,17.20
2010,08,18,20,52,17.20
2010,08,18,20,53,17.20
2010,08,18,20,54,17.10
2010,08,18,20,55,17.10
2010,08,18,20,56,17.10
2010,08,18,20,57,17.10
2010,08,18,20,58,17.10
2010,08,18,20,59,17.10
2010,08,18,21,00,17.00
2010,08,18,21,01,17.00
2010,08,18,21,02,17.00
2010,08,18,21,03,16.90
2010,08,18,21,04,16.90
2010,08,18,21,05,16.90
2010,08,18,21,06,16.90
2010,08,18,21,07,16.90
2010,08,18,21,08,16.80
2010,08,18,21,09,16.80
2010,08,18,21,10,16.80
2010,08,18,21,11,16.80
2010,08,18,21,12,16.80
2010,08,18,21,13,16.70
2010,08,18,21,14,16.70
2010,08,18,21,15,16.70
2010,08,18,21,16,16.70
2010,08,18,21,17,16.60
2010,08,18,21,18,16.60
2010,08,18,21,19,16.60
2010,08,18,21,20,16.60
2010,08,18,21,21,16.60
2010,08,18,21,22,16.60
2010,08,18,21,23,16.60
2010,08,18,21,24,16.50
2010,08,18,21,25,16.50
2010,08,18,21,26,16.50
2010,08,18,21,27,16.50
2010,08,18,21,28,16.50
2010,08,18,21,29,16.50
2010,08,18,21,30,16.50
2010,08,18,21,31,16.40
2010,08,18,21,32,16.40
2010,08,18,21,33,16.40
2010,08,18,21,34,16.40
2010,08,18,21,35,16.40
2010,08,18,21,36,16.40
2010,08,18,21,37,16.40
2010,08,18,21,38,16.30
2010,08,18,21,39,16.30
2010,08,18,21,40,16.30
2010,08,18,21,41,16.30
2010,08,18,21,42,16.30
2010,08,18,21,43,16.30
2010,08,18,21,44,16.30
2010,08,18,21,45,16.20
2010,08,18,21,46,16.20
2010,08,18,21,47,16.20
2010,08,18,21,48,16.20
2010,08,18,21,49,16.20
2010,08,18,21,50,16.20
2010,08,18,21,51,16.20
2010,08,18,21,52,16.20
2010,08,18,21,53,16.20
2010,08,18,21,54,16.20
2010,08,18,21,55,16.20
2010,08,18,21,56,16.20
2010,08,18,21,57,16.20
2010,08,18,21,58,16.10
2010,08,18,21,59,16.10
2010,08,18,22,00,16.10
2010,08,18,22,01,16.10
2010,08,18,22,02,16.10
2010,08,18,22,03,16.10
2010,08,18,22,04,16.10
2010,08,18,22,05,16.10
2010,08,18,22,06,16.10
2010,08,18,22,07,16.00
2010,08,18,22,08,16.00
2010,08,18,22,09,16.00
2010,08,18,22,10,16.00
2010,08,18,22,11,15.90
2010,08,18,22,15,15.90
2010,08,18,22,16,15.90
2010,08,18,22,17,15.90
2010,08,18,22,18,15.90
2010,08,18,22,19,15.90
2010,08,18,22,20,15.90
2010,08,18,22,21,15.80
2010,08,18,22,22,15.80
2010,08,18,22,23,15.80
2010,08,18,22,24,15.80
2010,08,18,22,25,15.80
2010,08,18,22,26,15.80
2010,08,18,22,27,15.70
2010,08,18,22,28,15.70
2010,08,18,22,29,15.70
2010,08,18,22,30,15.70
2010,08,18,22,31,15.70
2010,08,18,22,32,15.70
2010,08,18,22,33,15.60
2010,08,18,22,34,15.60
2010,08,18,22,35,15.60
2010,08,18,22,36,15.60
2010,08,18,22,37,15.60
2010,08,18,22,38,15.60
2010,08,18,22,39,15.60
2010,08,18,22,40,15.60
2010,08,18,22,41,15.60
2010,08,18,22,42,15.60
2010,08,18,22,43,15.60
2010,08,18,22,44,15.50
2010,08,18,22,45,15.50
2010,08,18,22,46,15.50
2010,08,18,22,47,15.50
2010,08,18,22,48,15.50
2010,08,18,22,49,15.50
2010,08,18,22,50,15.50
2010,08,18,22,51,15.50
2010,08,18,22,52,15.40
2010,08,18,22,53,15.40
2010,08,18,22,54,15.40
2010,08,18,22,55,15.40
2010,08,18,22,56,15.40
2010,08,18,22,57,15.40
2010,08,18,22,58,15.40
2010,08,18,22,59,15.30
2010,08,18,23,00,15.30
2010,08,18,23,01,15.30
2010,08,18,23,02,15.30
2010,08,18,23,03,15.30
2010,08,18,23,04,15.20
2010,08,18,23,05,15.20
2010,08,18,23,06,15.20
2010,08,18,23,07,15.20
2010,08,18,23,08,15.10
2010,08,18,23,09,15.10
2010,08,18,23,10,15.00
2010,08,18,23,11,15.00
2010,08,18,23,12,15.00
2010,08,18,23,13,15.00
2010,08,18,23,14,15.00
2010,08,18,23,15,15.00
2010,08,18,23,16,15.00
2010,08,18,23,17,15.00
2010,08,18,23,18,15.00
2010,08,18,23,19,15.00
2010,08,18,23,20,15.00
2010,08,18,23,21,15.00
2010,08,18,23,22,15.00
2010,08,18,23,23,15.00
2010,08,18,23,24,15.00
2010,08,18,23,25,15.00
2010,08,18,23,26,15.00
2010,08,18,23,27,15.00
2010,08,18,23,28,14.90
2010,08,18,23,29,14.90
2010,08,18,23,30,14.90
2010,08,18,23,31,14.90
2010,08,18,23,32,14.80
2010,08,18,23,33,14.80
2010,08,18,23,34,14.80
2010,08,18,23,35,14.80
2010,08,18,23,36,14.80
2010,08,18,23,37,14.80
2010,08,18,23,38,14.80
2010,08,18,23,39,14.70
2010,08,18,23,40,14.70
2010,08,18,23,41,14.70
2010,08,18,23,42,14.70
2010,08,18,23,43,14.70
2010,08,18,23,44,14.70
2010,08,18,23,45,14.70
2010,08,18,23,46,14.70
2010,08,18,23,47,14.60
2010,08,18,23,48,14.60
2010,08,18,23,49,14.60
2010,08,18,23,50,14.60
2010,08,18,23,51,14.60
2010,08,18,23,52,14.60
2010,08,18,23,53,14.60
2010,08,18,23,54,14.60
2010,08,18,23,55,14.60
2010,08,18,23,56,14.70
2010,08,18,23,57,14.70
2010,08,18,23,58,14.70
2010,08,18,23,59,14.70
